RH
11 13 14 15 15 16 15 15 15 15 18 23 24 22 24 30 30 31 33 37 43 50 56 60 62 64 63 69 63 67 75 79 79 79 84 81 81 89 89 86 86 67 42 49 52 48 64
9 10 12 13 14 15 17 16 17 16 17 24 25 24 24 30 30 30 31 35 42 48 58 67 69 68 62 62 61 69 69 78 76 83 85 75 87 92 92 93 83 68 47 44 40 46 61
7 9 9 11 13 14 18 17 16 18 17 23 27 27 25 30 31 31 30 31 38 48 59 69 67 61 55 58 65 66 70 74 74 82 87 82 85 93 97 82 73 65 51 42 36 46 57
7 8 9 9 10 13 18 19 16 18 19 22 27 27 25 27 32 31 32 31 37 47 58 72 65 63 57 59 64 67 71 82 79 74 86 87 91 96 89 76 68 60 49 46 39 42 53
8 8 8 8 9 12 17 19 16 18 20 23 27 27 26 25 32 32 33 33 36 45 56 71 73 66 59 55 64 70 71 81 81 77 77 84 90 90 80 74 64 60 50 41 40 35 39
9 8 8 8 8 11 16 21 19 17 20 22 27 28 25 24 30 32 32 34 38 44 48 65 76 84 74 75 66 70 77 81 83 84 86 86 85 81 76 69 68 57 47 39 36 31 34
10 9 9 9 9 10 15 21 21 20 20 22 26 28 25 23 26 33 33 33 37 45 47 52 65 80 90 81 76 80 86 88 87 84 88 84 80 76 75 66 63 55 45 39 46 32 37
15 12 9 9 9 10 15 21 22 22 22 22 25 28 26 23 23 30 32 32 34 39 50 50 61 75 81 84 80 78 87 91 88 88 85 79 83 72 73 69 61 54 44 60 49 37 37
19 16 13 10 9 10 14 20 23 23 23 23 24 29 27 23 22 27 31 31 35 37 49 48 57 67 75 82 82 83 87 86 87 86 90 94 74 71 69 67 60 56 51 50 50 39 40
21 20 16 12 10 11 13 19 24 24 24 24 24 27 30 25 24 26 30 31 35 39 57 47 48 55 64 73 76 75 77 82 83 82 85 75 67 69 68 64 69 57 53 42 44 43 52
24 22 18 15 11 10 12 17 24 26 25 24 25 25 31 28 24 27 28 30 32 37 62 45 47 49 56 62 64 66 69 75 77 73 74 70 67 71 64 61 62 62 58 43 36 39 44
22 24 20 16 14 10 12 15 23 28 28 26 25 24 29 30 28 24 26 29 32 52 54 45 44 45 51 53 57 62 65 66 71 74 70 65 60 60 60 56 54 50 42 38 39 40 60
18 21 23 18 15 12 12 16 22 29 31 29 25 25 27 30 31 27 28 30 50 52 40 45 45 44 46 47 50 52 59 60 64 74 75 62 58 53 53 56 54 46 48 53 51 56 60
16 17 23 20 15 16 16 17 22 31 36 34 28 26 27 28 30 30 31 38 42 37 37 41 45 46 45 42 43 47 51 55 51 53 65 68 65 52 50 54 51 42 37 56 51 58 50
14 15 18 23 17 20 20 19 22 28 37 38 34 28 27 28 28 31 39 44 45 37 35 37 42 44 45 43 42 41 45 49 47 48 58 57 55 45 43 40 40 34 39 30 44 40 46
15 15 16 22 24 21 20 20 21 25 34 38 38 33 29 27 29 34 38 39 38 35 37 38 38 37 42 41 41 39 40 42 43 43 44 42 45 40 37 35 34 31 28 42 46 46 43
16 17 17 21 29 23 21 22 22 24 30 35 37 40 31 29 31 35 46 40 37 36 37 39 36 37 35 39 39 38 38 40 38 39 39 39 38 39 35 33 34 32 32 29 32 39 51
17 19 20 24 25 30 23 23 24 26 31 33 36 44 35 33 37 36 40 39 38 38 38 38 38 35 32 31 35 38 38 37 36 36 37 34 38 38 33 32 29 30 30 28 42 34 31
20 22 23 26 25 30 29 25 26 28 29 31 36 38 37 40 45 43 40 40 39 39 37 38 38 37 36 32 33 30 35 37 36 36 34 33 34 44 34 34 32 31 28 28 27 28 30
25 26 26 26 27 30 34 33 27 29 30 30 32 42 39 42 42 42 42 41 41 40 40 38 38 37 37 35 34 35 31 28 27 29 29 29 29 33 43 33 33 32 31 29 28 41 31
28 30 35 36 37 36 38 41 36 31 33 35 37 44 40 48 51 47 44 44 42 43 42 40 41 40 39 37 34 34 35 38 40 36 30 25 26 28 24 22 24 27 28 31 31 30 29
38 40 42 37 37 41 49 48 50 41 36 37 41 44 46 46 48 49 49 48 45 42 42 44 44 42 42 43 42 40 38 37 36 38 36 37 42 38 40 34 32 31 26 21 24 27 26
41 40 42 46 50 56 61 60 56 50 42 40 39 40 46 52 51 51 53 50 47 45 46 45 44 45 45 45 44 44 43 42 41 40 40 39 39 42 47 39 38 39 36 36 32 32 35
46 52 50 52 61 68 70 65 61 62 54 46 41 41 55 56 54 54 53 50 50 49 50 48 47 48 50 48 47 46 46 46 45 45 44 44 41 44 54 43 53 37 31 32 33 32 33
58 61 63 65 68 75 75 70 68 67 67 67 58 51 60 61 56 55 57 56 54 52 52 51 50 49 50 50 51 51 50 47 47 46 45 45 45 49 57 53 39 34 34 33 34 34 34
78 75 76 78 80 83 84 83 76 71 77 79 75 70 67 66 63 59 58 58 58 57 57 55 52 51 52 53 53 54 51 44 49 50 47 48 48 52 52 54 45 34 34 33 34 39 35
94 92 90 89 91 90 90 93 88 89 88 86 84 83 81 78 73 65 64 65 61 57 57 58 57 56 55 56 59 55 52 46 46 45 55 55 54 56 56 56 46 39 39 38 42 42 37
95 97 95 96 96 95 95 94 96 95 91 90 89 89 88 85 82 79 76 74 70 68 66 66 64 62 61 62 60 58 56 52 50 46 51 54 57 57 54 55 56 42 42 42 42 41 42
98 98 97 96 96 97 98 97 95 94 97 94 93 92 90 90 85 82 81 80 80 78 74 71 67 65 64 66 65 63 62 57 55 55 51 54 49 50 50 51 47 46 45 45 46 46 47